Regional Weather Roundup
Issued by NWS

Home | Current Version | Previous Version | Graphics & Text | Print | Product List | Glossary On
Versions: 1 2 3 4 5 6 7 8 9 10 11 12 13 14 15 16 17 18 19 20 21 22 23 24 25 26 27 28 29 30 31 32 33 34 35 36 37 38 39 40 41 42 43 44 45 46 47 48 49 50
000
ASUS43 KMKX 232021
RWRWI

WISCONSIN REGIONAL WEATHER ROUNDUP
NATIONAL WEATHER SERVICE MILWAUKEE/SULLIVAN WI
300 PM CDT WED AUG 23 2017

NOTE: "FAIR" INDICATES FEW OR NO CLOUDS BELOW 12,000 FEET WITH NO
SIGNIFICANT WEATHER AND/OR OBSTRUCTIONS TO VISIBILITY.

WIZ001-002-006>008-014>016-023>028-232100-
NORTHWEST WISCONSIN

CITY           SKY/WX    TMP DP  RH WIND       PRES   REMARKS
SUPERIOR ARPT    N/A     68  49  51 CALM      30.07S
ASHLAND        MOSUNNY   67  50  54 N9        30.07F
HAYWARD        SUNNY     65  46  50 VRB6      30.07F
SIREN          MOSUNNY   68  45  43 S5        30.08S
CUMBERLAND     MOSUNNY   64  45  48 N7        30.08S
RICE LAKE      MOSUNNY   69  47  46 N6        30.08F
CHETEK         PTSUNNY   67  48  51 NW6       30.07F
LADYSMITH      MOSUNNY   68  48  48 N6        30.08F
EAU CLAIRE     MOSUNNY   71  49  45 N8        30.05F
MENOMONIE      MOSUNNY   70  50  49 NW9       30.07F
NEW RICHMOND   MOSUNNY   70  49  47 N8        30.08F
OSCEOLA        PTSUNNY   71  52  50 NW7       30.10F
$$

WIZ003>005-009-010-017-018-232100-
NORTH CENTRAL WISCONSIN

CITY           SKY/WX    TMP DP  RH WIND       PRES   REMARKS
MANITOWISH WTR MOSUNNY   62  46  55 N9        30.06S
ARBOR VITAE    MOSUNNY   64  48  54 N13G18    30.06S
WOODRUFF       MOSUNNY   64  48  54 N13G18    30.06S
RHINELANDER    MOSUNNY   66  49  54 NW10G18   30.05S
EAGLE RIVER    PTSUNNY   64  43  47 NW13G20   30.05R
LAND O LAKES   PTSUNNY   63  44  49 NW14G20   30.07S
PHILLIPS       PTSUNNY   65  48  54 N7        30.05F
TOMAHAWK         N/A     66  44  45 NW7       30.05F
MEDFORD        MOSUNNY   66  50  55 N10       30.05F
MERRILL        MOSUNNY   66  48  52 N10G17    30.05S
$$

WIZ029-030-035-036-043>047-232100-
CENTRAL WISCONSIN

CITY           SKY/WX    TMP DP  RH WIND       PRES   REMARKS
WAUSAU         MOSUNNY   69  48  47 NW15      30.02F
MOSINEE        PTSUNNY   70  48  46 W13G18    30.05F
MARSHFIELD     MOSUNNY   66  48  52 NW12      30.05S
STEVENS POINT  PTSUNNY   66  46  49 NW7       30.04F
WAUPACA        MOSUNNY   75  48  39 NW8       30.03S
WAUTOMA        PTSUNNY   72  50  45 N12G17    30.04S
WISC RAPIDS    MOSUNNY   70  48  45 N9        30.06S
CAMP DOUGLAS   PTSUNNY   72  54  53 NW10      30.05F
$$

WIZ011>013-019>022-031-037>040-048>050-232100-
NORTHEAST WISCONSIN

CITY           SKY/WX    TMP DP  RH WIND       PRES   REMARKS
ANTIGO         MOSUNNY   67  48  50 NW13G21   30.04S
SHAWANO        MOSUNNY   71  48  43 W8        30.01S
OCONTO         MOSUNNY   69  48  47 NW5       30.00S
STURGEON BAY   SUNNY     66  50  56 NW7       30.01S
GREEN BAY      MOSUNNY   72  54  53 NW9       30.00F
MANITOWOC      MOSUNNY   70  50  49 W7        30.02S
APPLETON       PTSUNNY   72  45  37 NW12      30.01F
CLINTONVILLE   MOSUNNY   70  45  40 N10       30.02S
OSHKOSH        MOSUNNY   72  51  47 N12       30.02S
$$

WIZ032>034-041-042-053>061-232100-
SOUTHWEST WISCONSIN

CITY           SKY/WX    TMP DP  RH WIND       PRES   REMARKS
LA CROSSE      MOSUNNY   78  52  40 NW12      30.05F
SPARTA         MOSUNNY   72  51  47 NW10G18   30.07S
VIROQUA        CLOUDY    69  52  54 NW6       30.07F
BOSCOBEL       MOSUNNY   77  51  40 W9        30.06F
PRAIRIE DU CHI MOSUNNY   76  45  33 NW9       30.06S
PLATTEVILLE    SUNNY     74  53  48 NW12G17   30.07S
$$

WIZ056-057-062-063-064-067-068-232100-
SOUTH CENTRAL WISCONSIN

CITY           SKY/WX    TMP DP  RH WIND       PRES   REMARKS
REEDSBURG      PTSUNNY   73  50  43 NW10G16   30.05F
BARABOO/DELLS  MOSUNNY   71  46  40 NW9       30.05F
LONE ROCK      MOSUNNY   73  54  51 N9        30.05F
MINERAL POINT  PTSUNNY   72  50  46 NW9       30.07S
MADISON        PTSUNNY   72  52  49 N8        30.04F
MIDDLETON      MOSUNNY   73  51  46 NW7       30.05F
WATERTOWN      PTSUNNY   73  53  49 NW10      30.03F
MONROE         MOSUNNY   72  50  46 NW8       30.05F
JANESVILLE     PTSUNNY   75  52  43 NW9       30.04F
$$

WIZ051-052-058>065-066-070>072-232100-
SOUTHEAST WISCONSIN

CITY           SKY/WX    TMP DP  RH WIND       PRES   REMARKS
MILWAUKEE      MOSUNNY   72  54  53 VRB3      30.02F
WAUKESHA       PTSUNNY   70  48  46 NW12      30.04F
MILWAUKEE/TIMM CLOUDY    72  45  37 W10G17    30.03F
RACINE         MOSUNNY   72  57  59 E8        30.04F
KENOSHA        MOSUNNY   75  50  41 NW13G18   30.03F
FOND DU LAC    PTSUNNY   72  48  42 N14G21    30.02F
SHEBOYGAN      PTSUNNY   69  53  56 NW7       30.02S
WEST BEND      PTSUNNY   68  50  52 NW8       30.03S
JUNEAU         PTSUNNY   70  51  50 NW8       30.04F
$$

LSZ147-162-232100-
LAKE SUPERIOR

STATION/POSITION TIME  TEMP    WIND        PRES    WAVE
                       AIR SEA DIR/SP/G            HT/PER
                 (UTC) (F)     (DEG/KT/KT) (MB)    (FT/S)
W MID LAKE BUOY  1950   59 60  270/  6/  6 1017.8F   1/ 4
DEVILS ISLAND    2000   61     240/  4/  4 1018.5S
SAXON HARBOR     1930   61      40/  9/ 13 1018.3F
$$

LMZ867-665-643>646-232100-
LAKE MICHIGAN

STATION/POSITION TIME  TEMP    WIND        PRES    WAVE
                       AIR SEA DIR/SP/G            HT/PER
                 (UTC) (F)     (DEG/KT/KT) (MB)    (FT/S)
S GREEN BAY BUOY 1930   68 71   10/ 10/ 12 1015.9S
N MID LAKE BUOY  1950   64 66  300/ 10/ 14 1016.3R   2/ 4
NORTHPORT PIER   1940   66     330/ 11/ 13 1015.9R
KEWAUNEE LAKESHO 1954   71     340/  3/  6 1015.4S
SHEBOYGAN LAKESH 2000   65     120/  7/  7 1016.2F
PORT WASHINGTON  1940   74     300/  6/ 10 1017.3S
ATWATER BUOY     1939   69 70   30/  8/ 12 1016.5F
MILWAUKEE LAKESH 2000   69      60/  5/  6   N/A
S MID LAKE BUOY  1950   66 71   20/ 10/ 12 1016.7F   2/ 5
KENOSHA   LAKESH 2000   68      80/  8/  9 1016.3
$$

TC  - TEMPERATURE IN CELSIUS
VSB - VISIBILITY IN STATUTE MILES
WCI - WIND CHILL INDEX
HX  - HEAT INDEX





USA.gov is the U.S. government's official web portal to all federal, state and local government web resources and services.